TimeEDT,TemperatureF,Dew PointF,Humidity,Sea Level PressureIn,VisibilityMPH,Wind Direction,Wind SpeedMPH,Gust SpeedMPH,PrecipitationIn,Events,Conditions,WindDirDegrees,DateUTC
12:16 AM,36.5,33.8,90,30.10,10.0,WNW,11.5,17.3,N/A,,Clear,300,2013-10-25 04:16:00
12:36 AM,36.1,33.8,91,30.10,10.0,WNW,10.4,17.3,N/A,,Clear,300,2013-10-25 04:36:00
12:55 AM,36.1,33.8,91,30.10,10.0,NW,9.2,20.7,N/A,,Scattered Clouds,310,2013-10-25 04:55:00
1:16 AM,36.1,34.0,92,30.10,10.0,NW,8.1,17.3,N/A,,Scattered Clouds,320,2013-10-25 05:16:00
1:36 AM,36.5,33.8,90,30.10,10.0,NW,10.4,-,N/A,,Clear,320,2013-10-25 05:36:00
1:55 AM,36.0,34.0,93,30.11,10.0,NW,8.1,18.4,N/A,,Scattered Clouds,320,2013-10-25 05:55:00
2:16 AM,35.6,33.6,92,30.11,10.0,NNW,8.1,-,N/A,,Scattered Clouds,340,2013-10-25 06:16:00
2:36 AM,35.6,33.1,91,30.12,10.0,North,5.8,-,N/A,,Clear,350,2013-10-25 06:36:00
2:55 AM,35.4,33.1,91,30.13,10.0,North,5.8,-,N/A,,Mostly Cloudy,350,2013-10-25 06:55:00
3:16 AM,35.4,33.4,92,30.14,10.0,NW,4.6,-,N/A,,Mostly Cloudy,320,2013-10-25 07:16:00
3:36 AM,35.2,33.3,92,30.14,10.0,WNW,4.6,-,N/A,,Overcast,300,2013-10-25 07:36:00
3:55 AM,34.7,32.9,93,30.14,10.0,NNW,4.6,-,N/A,,Overcast,330,2013-10-25 07:55:00
4:16 AM,34.3,32.9,94,30.14,10.0,NNW,3.5,-,N/A,,Mostly Cloudy,340,2013-10-25 08:16:00
4:36 AM,34.7,33.1,94,30.14,10.0,NNW,4.6,-,N/A,,Mostly Cloudy,330,2013-10-25 08:36:00
4:56 AM,34.7,33.3,94,30.15,10.0,NW,4.6,-,N/A,,Mostly Cloudy,310,2013-10-25 08:56:00
5:16 AM,35.4,33.8,94,30.15,10.0,NW,3.5,-,N/A,,Overcast,320,2013-10-25 09:16:00
5:35 AM,35.6,34.0,94,30.15,10.0,Calm,Calm,-,N/A,,Overcast,0,2013-10-25 09:35:00
5:56 AM,35.8,34.0,93,30.15,10.0,NW,5.8,-,N/A,,Overcast,310,2013-10-25 09:56:00
6:16 AM,36.0,34.2,93,30.16,10.0,WNW,6.9,-,N/A,,Overcast,300,2013-10-25 10:16:00
6:35 AM,36.0,34.5,94,30.16,10.0,WNW,8.1,-,N/A,,Mostly Cloudy,300,2013-10-25 10:35:00
6:56 AM,37.0,34.7,91,30.17,10.0,WNW,8.1,-,N/A,,Mostly Cloudy,290,2013-10-25 10:56:00
7:16 AM,37.0,34.0,89,30.17,10.0,WNW,10.4,-,N/A,,Mostly Cloudy,300,2013-10-25 11:16:00
7:35 AM,37.0,34.0,89,30.16,10.0,WNW,6.9,-,N/A,,Overcast,290,2013-10-25 11:35:00
7:56 AM,36.9,34.9,93,30.16,10.0,WNW,5.8,-,N/A,,Scattered Clouds,290,2013-10-25 11:56:00
8:15 AM,37.6,35.2,91,30.17,10.0,WNW,9.2,-,N/A,,Scattered Clouds,290,2013-10-25 12:15:00
8:36 AM,37.4,35.1,91,30.18,10.0,WNW,8.1,-,N/A,,Overcast,300,2013-10-25 12:36:00
8:56 AM,37.6,33.4,85,30.18,10.0,WNW,11.5,16.1,N/A,,Overcast,300,2013-10-25 12:56:00
9:15 AM,37.9,33.6,84,30.19,10.0,West,10.4,-,N/A,,Overcast,280,2013-10-25 13:15:00
9:36 AM,38.3,34.0,84,30.18,10.0,WNW,8.1,-,N/A,,Scattered Clouds,290,2013-10-25 13:36:00
9:56 AM,39.4,35.1,84,30.17,10.0,West,6.9,-,N/A,,Clear,270,2013-10-25 13:56:00
10:16 AM,40.1,35.1,82,30.17,10.0,West,10.4,-,N/A,,Clear,280,2013-10-25 14:16:00
10:36 AM,41.0,34.5,78,30.17,10.0,West,10.4,16.1,N/A,,Clear,270,2013-10-25 14:36:00
10:55 AM,42.6,33.3,69,30.16,10.0,West,11.5,17.3,N/A,,Clear,260,2013-10-25 14:55:00
11:16 AM,41.9,32.9,70,30.16,10.0,WNW,12.7,-,N/A,,Mostly Cloudy,290,2013-10-25 15:16:00
11:36 AM,41.9,34.0,73,30.16,10.0,WNW,10.4,-,N/A,,Mostly Cloudy,290,2013-10-25 15:36:00
11:55 AM,41.4,32.7,71,30.16,10.0,West,15.0,-,N/A,,Mostly Cloudy,260,2013-10-25 15:55:00
12:16 PM,42.8,31.6,65,30.16,10.0,West,13.8,23.0,N/A,,Clear,260,2013-10-25 16:16:00
12:36 PM,43.0,31.6,64,30.16,10.0,WSW,13.8,20.7,N/A,,Mostly Cloudy,250,2013-10-25 16:36:00
12:55 PM,43.9,31.3,61,30.15,10.0,West,16.1,20.7,N/A,,Mostly Cloudy,270,2013-10-25 16:55:00
1:16 PM,44.4,30.9,59,30.14,10.0,West,13.8,20.7,N/A,,Mostly Cloudy,260,2013-10-25 17:16:00
1:36 PM,44.4,30.9,59,30.13,10.0,WSW,11.5,20.7,N/A,,Mostly Cloudy,250,2013-10-25 17:36:00
1:55 PM,43.2,30.9,62,30.12,10.0,West,12.7,-,N/A,,Overcast,260,2013-10-25 17:55:00
2:16 PM,44.6,30.9,59,30.10,10.0,West,13.8,21.9,N/A,,Overcast,260,2013-10-25 18:16:00
2:36 PM,43.3,29.8,59,30.09,10.0,West,11.5,19.6,N/A,,Mostly Cloudy,260,2013-10-25 18:36:00
2:56 PM,43.7,30.0,59,30.09,10.0,West,16.1,24.2,N/A,,Overcast,270,2013-10-25 18:56:00
3:16 PM,43.7,31.6,63,30.08,10.0,West,13.8,20.7,N/A,,Overcast,260,2013-10-25 19:16:00
3:36 PM,42.4,31.6,66,30.06,10.0,WSW,15.0,23.0,N/A,,Overcast,250,2013-10-25 19:36:00
3:56 PM,43.5,30.0,59,30.06,10.0,West,17.3,27.6,N/A,,Overcast,260,2013-10-25 19:56:00
4:16 PM,43.7,29.8,58,30.05,10.0,WSW,17.3,26.5,N/A,,Overcast,250,2013-10-25 20:16:00
4:36 PM,43.3,29.1,57,30.04,10.0,WSW,18.4,25.3,N/A,,Overcast,250,2013-10-25 20:36:00
4:56 PM,43.5,29.7,58,30.02,10.0,WSW,15.0,26.5,N/A,,Overcast,250,2013-10-25 20:56:00
5:16 PM,43.3,30.6,61,30.01,10.0,SW,17.3,27.6,N/A,,Overcast,230,2013-10-25 21:16:00
5:36 PM,43.7,31.3,62,30.00,10.0,SSW,12.7,27.6,N/A,,Overcast,210,2013-10-25 21:36:00
5:56 PM,43.0,30.6,62,29.98,10.0,SW,12.7,25.3,N/A,,Overcast,220,2013-10-25 21:56:00
6:16 PM,43.2,30.4,61,29.97,10.0,SW,13.8,23.0,N/A,,Overcast,220,2013-10-25 22:16:00
6:36 PM,43.5,29.7,58,29.97,10.0,SW,16.1,24.2,N/A,,Overcast,220,2013-10-25 22:36:00
6:56 PM,42.8,30.4,62,29.95,10.0,SSW,16.1,25.3,N/A,,Overcast,200,2013-10-25 22:56:00
7:16 PM,41.2,31.1,67,29.94,10.0,SSW,17.3,28.8,N/A,,Overcast,200,2013-10-25 23:16:00
7:36 PM,40.8,31.6,70,29.93,10.0,SSW,16.1,26.5,N/A,Rain,Light Rain,200,2013-10-25 23:36:00
7:56 PM,41.9,30.6,64,29.91,10.0,South,10.4,27.6,N/A,,Overcast,190,2013-10-25 23:56:00
8:16 PM,41.9,30.2,63,29.90,10.0,South,17.3,25.3,N/A,,Overcast,190,2013-10-26 00:16:00
8:35 PM,41.5,29.7,63,29.88,10.0,South,12.7,25.3,N/A,,Overcast,190,2013-10-26 00:35:00
8:56 PM,41.4,29.5,63,29.87,10.0,South,16.1,25.3,N/A,,Overcast,190,2013-10-26 00:56:00
9:16 PM,41.0,29.1,63,29.87,10.0,South,8.1,23.0,N/A,,Overcast,190,2013-10-26 01:16:00
9:35 PM,40.5,31.6,71,29.85,10.0,SSW,17.3,26.5,N/A,Rain,Light Rain,210,2013-10-26 01:35:00
9:56 PM,39.2,32.5,77,29.84,10.0,SSW,21.9,31.1,N/A,Rain,Light Rain,200,2013-10-26 01:56:00
10:16 PM,38.7,33.8,83,29.82,10.0,SSW,16.1,29.9,0.01,Rain,Light Rain,200,2013-10-26 02:16:00
10:35 PM,38.8,34.5,84,29.81,10.0,SSW,18.4,26.5,0.01,,Unknown,200,2013-10-26 02:35:00
10:56 PM,39.4,35.6,86,29.79,10.0,South,16.1,27.6,0.01,Rain,Light Rain,190,2013-10-26 02:56:00
11:16 PM,40.1,35.1,82,29.77,10.0,SSW,17.3,26.5,0.01,Rain,Light Rain,200,2013-10-26 03:16:00
11:35 PM,40.8,36.3,84,29.75,7.0,SSW,15.0,27.6,0.02,Rain,Light Rain,200,2013-10-26 03:35:00
11:56 PM,40.8,37.2,87,29.73,4.0,SSW,19.6,33.4,0.05,Rain,Light Rain,210,2013-10-26 03:56:00